User: anonymous   Login
Location: Antichan
(42.9728°N, 0.6667°E)
Time: 11:19:36
(UTC+00:00)
Language:

SPOT 5 - Orbit

View from above orbital plane
View from above orbital plane
View from above satellite
View from above satellite

Ground track
Ground track

The orbit data is extracted from the following two-line orbital elements,

1 27421U 02021A   20305.16091187  .00000028  00000-0  17251-4 0  9994
2 27421  98.2597  13.9050 0135463 147.8731 213.0812 14.52057919964446
Epoch (UTC): 31 October 2020 03:51:42
Eccentricity: 0.0135463
inclination: 98.2597°
perigee height: 623 km
apogee height: 815 km
right ascension of ascending node: 13.9050°
argument of perigee: 147.8731°
revolutions per day: 14.52057919
mean anomaly at epoch: 213.0812°
orbit number at epoch: 96444

The dashed part of the orbit path shows where the satellite is in the earth's shadow,  

DLR